Year,Month,Day,Hour,Minute,Value (Times are PST for temperature in C)
2018,07,15,00,00,19.50
2018,07,15,00,01,19.50
2018,07,15,00,02,19.50
2018,07,15,00,03,19.40
2018,07,15,00,04,19.40
2018,07,15,00,05,19.30
2018,07,15,00,06,19.30
2018,07,15,00,07,19.30
2018,07,15,00,08,19.20
2018,07,15,00,09,19.20
2018,07,15,00,10,19.10
2018,07,15,00,11,19.10
2018,07,15,00,12,19.00
2018,07,15,00,13,18.90
2018,07,15,00,14,18.90
2018,07,15,00,15,18.80
2018,07,15,00,16,18.80
2018,07,15,00,17,18.80
2018,07,15,00,18,18.70
2018,07,15,00,19,18.70
2018,07,15,00,20,18.70
2018,07,15,00,21,18.70
2018,07,15,00,22,18.70
2018,07,15,00,23,18.70
2018,07,15,00,24,18.70
2018,07,15,00,25,18.60
2018,07,15,00,26,18.60
2018,07,15,00,27,18.60
2018,07,15,00,28,18.60
2018,07,15,00,29,18.60
2018,07,15,00,30,18.60
2018,07,15,00,31,18.60
2018,07,15,00,32,18.60
2018,07,15,00,33,18.60
2018,07,15,00,34,18.60
2018,07,15,00,35,18.70
2018,07,15,00,36,18.70
2018,07,15,00,37,18.70
2018,07,15,00,38,18.80
2018,07,15,00,39,18.80
2018,07,15,00,40,18.80
2018,07,15,00,41,18.80
2018,07,15,00,42,18.70
2018,07,15,00,43,18.70
2018,07,15,00,44,18.70
2018,07,15,00,45,18.70
2018,07,15,00,46,18.70
2018,07,15,00,47,18.60
2018,07,15,00,48,18.60
2018,07,15,00,49,18.60
2018,07,15,00,50,18.60
2018,07,15,00,51,18.50
2018,07,15,00,52,18.50
2018,07,15,00,53,18.40
2018,07,15,00,54,18.40
2018,07,15,00,55,18.30
2018,07,15,00,56,18.30
2018,07,15,00,57,18.30
2018,07,15,00,58,18.20
2018,07,15,00,59,18.20
2018,07,15,01,00,18.20
2018,07,15,01,01,18.20
2018,07,15,01,02,18.20
2018,07,15,01,03,18.20
2018,07,15,01,04,18.20
2018,07,15,01,05,18.20
2018,07,15,01,06,18.20
2018,07,15,01,07,18.20
2018,07,15,01,08,18.20
2018,07,15,01,09,18.20
2018,07,15,01,10,18.20
2018,07,15,01,11,18.10
2018,07,15,01,12,18.10
2018,07,15,01,13,18.00
2018,07,15,01,14,18.00
2018,07,15,01,15,18.00
2018,07,15,01,16,17.90
2018,07,15,01,17,17.90
2018,07,15,01,18,17.90
2018,07,15,01,19,17.80
2018,07,15,01,20,17.80
2018,07,15,01,21,17.80
2018,07,15,01,22,17.80
2018,07,15,01,23,17.70
2018,07,15,01,24,17.70
2018,07,15,01,25,17.70
2018,07,15,01,26,17.70
2018,07,15,01,27,17.60
2018,07,15,01,28,17.60
2018,07,15,01,29,17.60
2018,07,15,01,30,17.60
2018,07,15,01,31,17.60
2018,07,15,01,32,17.60
2018,07,15,01,33,17.60
2018,07,15,01,34,17.60
2018,07,15,01,35,17.60
2018,07,15,01,36,17.60
2018,07,15,01,37,17.50
2018,07,15,01,38,17.50
2018,07,15,01,39,17.40
2018,07,15,01,40,17.40
2018,07,15,01,41,17.40
2018,07,15,01,42,17.40
2018,07,15,01,43,17.30
2018,07,15,01,44,17.30
2018,07,15,01,45,17.30
2018,07,15,01,46,17.30
2018,07,15,01,47,17.30
2018,07,15,01,48,17.20
2018,07,15,01,49,17.20
2018,07,15,01,50,17.20
2018,07,15,01,51,17.20
2018,07,15,01,52,17.10
2018,07,15,01,53,17.10
2018,07,15,01,54,17.10
2018,07,15,01,55,17.10
2018,07,15,01,56,17.10
2018,07,15,01,57,17.10
2018,07,15,01,58,17.10
2018,07,15,01,59,17.00
2018,07,15,02,00,17.00
2018,07,15,02,01,17.00
2018,07,15,02,02,17.00
2018,07,15,02,03,16.90
2018,07,15,02,04,16.90
2018,07,15,02,05,16.90
2018,07,15,02,06,16.90
2018,07,15,02,07,16.80
2018,07,15,02,08,16.80
2018,07,15,02,09,16.80
2018,07,15,02,10,16.80
2018,07,15,02,11,16.80
2018,07,15,02,12,16.70
2018,07,15,02,13,16.70
2018,07,15,02,14,16.70
2018,07,15,02,15,16.70
2018,07,15,02,16,16.60
2018,07,15,02,17,16.60
2018,07,15,02,18,16.60
2018,07,15,02,19,16.60
2018,07,15,02,20,16.60
2018,07,15,02,21,16.60
2018,07,15,02,22,16.50
2018,07,15,02,23,16.50
2018,07,15,02,24,16.50
2018,07,15,02,25,16.50
2018,07,15,02,26,16.50
2018,07,15,02,27,16.50
2018,07,15,02,28,16.50
2018,07,15,02,29,16.50
2018,07,15,02,30,16.50
2018,07,15,02,31,16.50
2018,07,15,02,32,16.50
2018,07,15,02,33,16.50
2018,07,15,02,34,16.50
2018,07,15,02,35,16.50
2018,07,15,02,36,16.40
2018,07,15,02,37,16.40
2018,07,15,02,38,16.40
2018,07,15,02,39,16.40
2018,07,15,02,40,16.30
2018,07,15,02,41,16.30
2018,07,15,02,42,16.30
2018,07,15,02,43,16.30
2018,07,15,02,44,16.20
2018,07,15,02,45,16.20
2018,07,15,02,46,16.20
2018,07,15,02,47,16.10
2018,07,15,02,48,16.10
2018,07,15,02,49,16.10
2018,07,15,02,50,16.10
2018,07,15,02,51,16.00
2018,07,15,02,52,16.00
2018,07,15,02,53,16.00
2018,07,15,02,54,15.90
2018,07,15,02,55,15.90
2018,07,15,02,56,15.90
2018,07,15,02,57,15.90
2018,07,15,02,58,15.90
2018,07,15,02,59,15.80
2018,07,15,03,00,15.80
2018,07,15,03,01,15.80
2018,07,15,03,02,15.80
2018,07,15,03,03,15.80
2018,07,15,03,04,15.70
2018,07,15,03,05,15.70
2018,07,15,03,06,15.70
2018,07,15,03,07,15.70
2018,07,15,03,08,15.70
2018,07,15,03,09,15.70
2018,07,15,03,10,15.70
2018,07,15,03,11,15.70
2018,07,15,03,12,15.70
2018,07,15,03,13,15.70
2018,07,15,03,14,15.70
2018,07,15,03,15,15.60
2018,07,15,03,16,15.60
2018,07,15,03,17,15.60
2018,07,15,03,18,15.50
2018,07,15,03,19,15.50
2018,07,15,03,20,15.50
2018,07,15,03,21,15.60
2018,07,15,03,22,15.60
2018,07,15,03,23,15.60
2018,07,15,03,24,15.60
2018,07,15,03,25,15.60
2018,07,15,03,26,15.60
2018,07,15,03,27,15.60
2018,07,15,03,28,15.60
2018,07,15,03,29,15.60
2018,07,15,03,30,15.60
2018,07,15,03,31,15.60
2018,07,15,03,32,15.60
2018,07,15,03,33,15.60
2018,07,15,03,34,15.60
2018,07,15,03,35,15.60
2018,07,15,03,36,15.60
2018,07,15,03,37,15.60
2018,07,15,03,38,15.50
2018,07,15,03,39,15.50
2018,07,15,03,40,15.50
2018,07,15,03,41,15.50
2018,07,15,03,42,15.50
2018,07,15,03,43,15.50
2018,07,15,03,44,15.50
2018,07,15,03,45,15.50
2018,07,15,03,46,15.50
2018,07,15,03,47,15.50
2018,07,15,03,48,15.50
2018,07,15,03,49,15.40
2018,07,15,03,50,15.40
2018,07,15,03,51,15.40
2018,07,15,03,52,15.40
2018,07,15,03,53,15.40
2018,07,15,03,54,15.40
2018,07,15,03,55,15.40
2018,07,15,03,56,15.40
2018,07,15,03,57,15.30
2018,07,15,03,58,15.30
2018,07,15,03,59,15.30
2018,07,15,04,00,15.30
2018,07,15,04,01,15.30
2018,07,15,04,02,15.30
2018,07,15,04,03,15.30
2018,07,15,04,04,15.30
2018,07,15,04,05,15.30
2018,07,15,04,06,15.20
2018,07,15,04,07,15.20
2018,07,15,04,08,15.20
2018,07,15,04,09,15.20
2018,07,15,04,10,15.20
2018,07,15,04,11,15.10
2018,07,15,04,12,15.10
2018,07,15,04,13,15.10
2018,07,15,04,14,15.10
2018,07,15,04,15,15.10
2018,07,15,04,16,15.10
2018,07,15,04,17,15.00
2018,07,15,04,18,15.00
2018,07,15,04,19,15.00
2018,07,15,04,20,15.00
2018,07,15,04,21,15.00
2018,07,15,04,22,14.90
2018,07,15,04,23,14.90
2018,07,15,04,24,14.90
2018,07,15,04,25,14.90
2018,07,15,04,26,14.90
2018,07,15,04,27,14.90
2018,07,15,04,28,14.90
2018,07,15,04,29,14.90
2018,07,15,04,30,14.90
2018,07,15,04,31,15.00
2018,07,15,04,32,15.00
2018,07,15,04,33,15.00
2018,07,15,04,34,15.00
2018,07,15,04,35,15.00
2018,07,15,04,36,14.90
2018,07,15,04,37,14.90
2018,07,15,04,38,14.90
2018,07,15,04,39,14.90
2018,07,15,04,40,14.80
2018,07,15,04,41,14.80
2018,07,15,04,42,14.80
2018,07,15,04,43,14.80
2018,07,15,04,44,14.80
2018,07,15,04,45,14.80
2018,07,15,04,46,14.80
2018,07,15,04,47,14.70
2018,07,15,04,48,14.70
2018,07,15,04,49,14.70
2018,07,15,04,50,14.70
2018,07,15,04,51,14.70
2018,07,15,04,52,14.70
2018,07,15,04,53,14.70
2018,07,15,04,54,14.70
2018,07,15,04,55,14.70
2018,07,15,04,56,14.70
2018,07,15,04,57,14.70
2018,07,15,04,58,14.70
2018,07,15,04,59,14.70
2018,07,15,05,00,14.60
2018,07,15,05,01,14.60
2018,07,15,05,02,14.60
2018,07,15,05,03,14.50
2018,07,15,05,04,14.50
2018,07,15,05,05,14.40
2018,07,15,05,06,14.40
2018,07,15,05,07,14.40
2018,07,15,05,08,14.40
2018,07,15,05,09,14.40
2018,07,15,05,10,14.40
2018,07,15,05,11,14.40
2018,07,15,05,12,14.40
2018,07,15,05,13,14.40
2018,07,15,05,14,14.40
2018,07,15,05,15,14.40
2018,07,15,05,16,14.40
2018,07,15,05,17,14.40
2018,07,15,05,18,14.40
2018,07,15,05,19,14.40
2018,07,15,05,20,14.40
2018,07,15,05,21,14.40
2018,07,15,05,22,14.40
2018,07,15,05,23,14.40
2018,07,15,05,24,14.40
2018,07,15,05,25,14.40
2018,07,15,05,26,14.40
2018,07,15,05,27,14.40
2018,07,15,05,28,14.40
2018,07,15,05,29,14.40
2018,07,15,05,30,14.30
2018,07,15,05,31,14.30
2018,07,15,05,32,14.30
2018,07,15,05,33,14.30
2018,07,15,05,34,14.20
2018,07,15,05,35,14.20
2018,07,15,05,36,14.20
2018,07,15,05,37,14.10
2018,07,15,05,38,14.10
2018,07,15,05,39,14.00
2018,07,15,05,40,14.00
2018,07,15,05,41,14.00
2018,07,15,05,42,14.00
2018,07,15,05,43,13.90
2018,07,15,05,44,13.90
2018,07,15,05,45,13.90
2018,07,15,05,46,13.90
2018,07,15,05,47,13.90
2018,07,15,05,48,13.80
2018,07,15,05,49,13.80
2018,07,15,05,50,13.80
2018,07,15,05,51,13.80
2018,07,15,05,52,13.80
2018,07,15,05,53,13.80
2018,07,15,05,54,13.80
2018,07,15,05,55,13.80
2018,07,15,05,56,13.80
2018,07,15,05,57,13.80
2018,07,15,05,58,13.80
2018,07,15,05,59,13.80
2018,07,15,06,00,13.90
2018,07,15,06,01,13.90
2018,07,15,06,02,14.00
2018,07,15,06,03,14.00
2018,07,15,06,04,14.10
2018,07,15,06,05,14.10
2018,07,15,06,06,14.10
2018,07,15,06,07,14.20
2018,07,15,06,08,14.20
2018,07,15,06,09,14.20
2018,07,15,06,10,14.20
2018,07,15,06,11,14.20
2018,07,15,06,12,14.20
2018,07,15,06,13,14.30
2018,07,15,06,14,14.30
2018,07,15,06,15,14.30
2018,07,15,06,16,14.30
2018,07,15,06,17,14.30
2018,07,15,06,18,14.30
2018,07,15,06,19,14.30
2018,07,15,06,20,14.30
2018,07,15,06,21,14.30
2018,07,15,06,22,14.30
2018,07,15,06,23,14.30
2018,07,15,06,24,14.30
2018,07,15,06,25,14.20
2018,07,15,06,26,14.20
2018,07,15,06,27,14.20
2018,07,15,06,28,14.20
2018,07,15,06,29,14.20
2018,07,15,06,30,14.20
2018,07,15,06,31,14.20
2018,07,15,06,32,14.20
2018,07,15,06,33,14.30
2018,07,15,06,34,14.20
2018,07,15,06,35,14.30
2018,07,15,06,36,14.30
2018,07,15,06,37,14.30
2018,07,15,06,38,14.30
2018,07,15,06,39,14.30
2018,07,15,06,40,14.30
2018,07,15,06,41,14.30
2018,07,15,06,42,14.40
2018,07,15,06,43,14.40
2018,07,15,06,44,14.40
2018,07,15,06,45,14.50
2018,07,15,06,46,14.50
2018,07,15,06,47,14.50
2018,07,15,06,48,14.60
2018,07,15,06,49,14.60
2018,07,15,06,50,14.70
2018,07,15,06,51,14.70
2018,07,15,06,52,14.70
2018,07,15,06,53,14.70
2018,07,15,06,54,14.80
2018,07,15,06,55,14.80
2018,07,15,06,56,14.80
2018,07,15,06,57,14.90
2018,07,15,06,58,14.90
2018,07,15,06,59,14.90
2018,07,15,07,00,14.90
2018,07,15,07,01,15.00
2018,07,15,07,02,15.00
2018,07,15,07,03,15.10
2018,07,15,07,04,15.10
2018,07,15,07,05,15.20
2018,07,15,07,06,15.20
2018,07,15,07,07,15.30
2018,07,15,07,08,15.30
2018,07,15,07,09,15.40
2018,07,15,07,10,15.40
2018,07,15,07,11,15.50
2018,07,15,07,12,15.50
2018,07,15,07,13,15.60
2018,07,15,07,14,15.60
2018,07,15,07,15,15.70
2018,07,15,07,16,15.70
2018,07,15,07,17,15.80
2018,07,15,07,18,15.80
2018,07,15,07,19,15.90
2018,07,15,07,20,16.00
2018,07,15,07,21,16.00
2018,07,15,07,22,16.10
2018,07,15,07,23,16.20
2018,07,15,07,24,16.20
2018,07,15,07,25,16.30
2018,07,15,07,26,16.30
2018,07,15,07,27,16.40
2018,07,15,07,28,16.50
2018,07,15,07,29,16.60
2018,07,15,07,30,16.60
2018,07,15,07,31,16.70
2018,07,15,07,32,16.70
2018,07,15,07,33,16.80
2018,07,15,07,34,16.80
2018,07,15,07,35,16.80
2018,07,15,07,36,16.90
2018,07,15,07,37,16.90
2018,07,15,07,38,17.00
2018,07,15,07,39,17.10
2018,07,15,07,40,17.10
2018,07,15,07,41,17.20
2018,07,15,07,42,17.30
2018,07,15,07,43,17.30
2018,07,15,07,44,17.40
2018,07,15,07,45,17.40
2018,07,15,07,46,17.50
2018,07,15,07,47,17.50
2018,07,15,07,48,17.60
2018,07,15,07,49,17.70
2018,07,15,07,50,17.70
2018,07,15,07,51,17.80
2018,07,15,07,52,17.80
2018,07,15,07,53,17.90
2018,07,15,07,54,18.00
2018,07,15,07,55,18.00
2018,07,15,07,56,18.10
2018,07,15,07,57,18.10
2018,07,15,07,58,18.20
2018,07,15,07,59,18.30
2018,07,15,08,00,18.30
2018,07,15,08,01,18.40
2018,07,15,08,02,18.50
2018,07,15,08,03,18.60
2018,07,15,08,04,18.60
2018,07,15,08,05,18.70
2018,07,15,08,06,18.70
2018,07,15,08,07,18.80
2018,07,15,08,08,18.90
2018,07,15,08,09,18.90
2018,07,15,08,10,19.00
2018,07,15,08,11,19.10
2018,07,15,08,12,19.10
2018,07,15,08,13,19.20
2018,07,15,08,14,19.30
2018,07,15,08,15,19.30
2018,07,15,08,16,19.40
2018,07,15,08,17,19.50
2018,07,15,08,18,19.50
2018,07,15,08,19,19.60
2018,07,15,08,20,19.70
2018,07,15,08,21,19.80
2018,07,15,08,22,20.00
2018,07,15,08,23,20.10
2018,07,15,08,24,20.20
2018,07,15,08,25,20.40
2018,07,15,08,26,20.50
2018,07,15,08,27,20.60
2018,07,15,08,28,20.70
2018,07,15,08,29,20.80
2018,07,15,08,30,20.80
2018,07,15,08,31,20.90
2018,07,15,08,32,20.90
2018,07,15,08,33,21.00
2018,07,15,08,34,21.00
2018,07,15,08,35,21.10
2018,07,15,08,36,21.10
2018,07,15,08,37,21.10
2018,07,15,08,38,21.20
2018,07,15,08,39,21.20
2018,07,15,08,40,21.20
2018,07,15,08,41,21.30
2018,07,15,08,42,21.30
2018,07,15,08,43,21.30
2018,07,15,08,44,21.40
2018,07,15,08,45,21.40
2018,07,15,08,46,21.50
2018,07,15,08,47,21.60
2018,07,15,08,48,21.60
2018,07,15,08,49,21.60
2018,07,15,08,50,21.70
2018,07,15,08,51,21.70
2018,07,15,08,52,21.80
2018,07,15,08,53,21.90
2018,07,15,08,54,21.90
2018,07,15,08,55,22.00
2018,07,15,08,56,22.10
2018,07,15,08,57,22.20
2018,07,15,08,58,22.20
2018,07,15,08,59,22.30
2018,07,15,09,00,22.50
2018,07,15,09,01,22.60
2018,07,15,09,02,22.70
2018,07,15,09,03,22.80
2018,07,15,09,04,22.90
2018,07,15,09,05,23.00
2018,07,15,09,06,23.10
2018,07,15,09,07,23.20
2018,07,15,09,08,23.30
2018,07,15,09,09,23.30
2018,07,15,09,10,23.40
2018,07,15,09,11,23.50
2018,07,15,09,12,23.50
2018,07,15,09,13,23.60
2018,07,15,09,14,23.60
2018,07,15,09,15,23.60
2018,07,15,09,16,23.70
2018,07,15,09,17,23.70
2018,07,15,09,18,23.80
2018,07,15,09,19,23.80
2018,07,15,09,20,23.80
2018,07,15,09,21,23.80
2018,07,15,09,22,23.80
2018,07,15,09,23,23.80
2018,07,15,09,24,23.80
2018,07,15,09,25,23.80
2018,07,15,09,26,23.80
2018,07,15,09,27,23.80
2018,07,15,09,28,23.90
2018,07,15,09,29,23.90
2018,07,15,09,30,24.00
2018,07,15,09,31,24.00
2018,07,15,09,32,24.10
2018,07,15,09,33,24.10
2018,07,15,09,34,24.20
2018,07,15,09,35,24.20
2018,07,15,09,36,24.30
2018,07,15,09,37,24.30
2018,07,15,09,38,24.30
2018,07,15,09,39,24.40
2018,07,15,09,40,24.40
2018,07,15,09,41,24.40
2018,07,15,09,42,24.40
2018,07,15,09,43,24.40
2018,07,15,09,44,24.40
2018,07,15,09,45,24.40
2018,07,15,09,46,24.40
2018,07,15,09,47,24.40
2018,07,15,09,48,24.50
2018,07,15,09,49,24.50
2018,07,15,09,50,24.60
2018,07,15,09,51,24.70
2018,07,15,09,52,24.70
2018,07,15,09,53,24.80
2018,07,15,09,54,24.80
2018,07,15,09,55,24.90
2018,07,15,09,56,25.00
2018,07,15,09,57,25.00
2018,07,15,09,58,25.10
2018,07,15,09,59,25.20
2018,07,15,10,00,25.20
2018,07,15,10,01,25.30
2018,07,15,10,02,25.30
2018,07,15,10,03,25.40
2018,07,15,10,04,25.50
2018,07,15,10,05,25.50
2018,07,15,10,06,25.60
2018,07,15,10,07,25.60
2018,07,15,10,08,25.60
2018,07,15,10,09,25.60
2018,07,15,10,10,25.60
2018,07,15,10,11,25.60
2018,07,15,10,12,25.60
2018,07,15,10,13,25.70
2018,07,15,10,14,25.70
2018,07,15,10,15,25.70
2018,07,15,10,16,25.70
2018,07,15,10,17,25.70
2018,07,15,10,18,25.70
2018,07,15,10,19,25.70
2018,07,15,10,20,25.70
2018,07,15,10,21,25.70
2018,07,15,10,22,25.70
2018,07,15,10,23,25.70
2018,07,15,10,24,25.80
2018,07,15,10,25,25.80
2018,07,15,10,26,25.90
2018,07,15,10,27,25.90
2018,07,15,10,28,25.90
2018,07,15,10,29,26.00
2018,07,15,10,30,26.00
2018,07,15,10,31,26.00
2018,07,15,10,32,26.10
2018,07,15,10,33,26.10
2018,07,15,10,34,26.10
2018,07,15,10,35,26.20
2018,07,15,10,36,26.20
2018,07,15,10,37,26.30
2018,07,15,10,38,26.30
2018,07,15,10,39,26.30
2018,07,15,10,40,26.30
2018,07,15,10,41,26.30
2018,07,15,10,42,26.30
2018,07,15,10,43,26.30
2018,07,15,10,44,26.30
2018,07,15,10,45,26.40
2018,07,15,10,46,26.40
2018,07,15,10,47,26.40
2018,07,15,10,48,26.50
2018,07,15,10,49,26.50
2018,07,15,10,50,26.60
2018,07,15,10,51,26.60
2018,07,15,10,52,26.60
2018,07,15,10,53,26.70
2018,07,15,10,54,26.70
2018,07,15,10,55,26.70
2018,07,15,10,56,26.70
2018,07,15,10,57,26.70
2018,07,15,10,58,26.70
2018,07,15,10,59,26.80
2018,07,15,11,00,26.80
2018,07,15,11,01,26.80
2018,07,15,11,02,26.80
2018,07,15,11,03,26.80
2018,07,15,11,04,26.80
2018,07,15,11,05,26.80
2018,07,15,11,06,26.80
2018,07,15,11,07,26.80
2018,07,15,11,08,26.80
2018,07,15,11,09,26.90
2018,07,15,11,10,26.90
2018,07,15,11,11,26.90
2018,07,15,11,12,27.00
2018,07,15,11,13,27.10
2018,07,15,11,14,27.10
2018,07,15,11,15,27.10
2018,07,15,11,16,27.10
2018,07,15,11,17,27.10
2018,07,15,11,18,27.10
2018,07,15,11,19,27.10
2018,07,15,11,20,27.10
2018,07,15,11,21,27.10
2018,07,15,11,22,27.10
2018,07,15,11,23,27.10
2018,07,15,11,24,27.10
2018,07,15,11,25,27.10
2018,07,15,11,26,27.10
2018,07,15,11,27,27.10
2018,07,15,11,28,27.20
2018,07,15,11,29,27.20
2018,07,15,11,30,27.20
2018,07,15,11,31,27.30
2018,07,15,11,32,27.30
2018,07,15,11,33,27.30
2018,07,15,11,34,27.40
2018,07,15,11,35,27.40
2018,07,15,11,36,27.40
2018,07,15,11,37,27.40
2018,07,15,11,38,27.40
2018,07,15,11,39,27.40
2018,07,15,11,40,27.40
2018,07,15,11,41,27.50
2018,07,15,11,42,27.50
2018,07,15,11,43,27.60
2018,07,15,11,44,27.60
2018,07,15,11,45,27.60
2018,07,15,11,46,27.60
2018,07,15,11,47,27.60
2018,07,15,11,48,27.60
2018,07,15,11,49,27.60
2018,07,15,11,50,27.60
2018,07,15,11,51,27.70
2018,07,15,11,52,27.70
2018,07,15,11,53,27.70
2018,07,15,11,54,27.80
2018,07,15,11,55,27.80
2018,07,15,11,56,27.90
2018,07,15,11,57,28.00
2018,07,15,11,58,28.00
2018,07,15,11,59,28.00
2018,07,15,12,00,28.10
2018,07,15,12,01,28.10
2018,07,15,12,02,28.20
2018,07,15,12,03,28.20
2018,07,15,12,04,28.20
2018,07,15,12,05,28.30
2018,07,15,12,06,28.30
2018,07,15,12,07,28.40
2018,07,15,12,08,28.40
2018,07,15,12,09,28.40
2018,07,15,12,10,28.40
2018,07,15,12,11,28.50
2018,07,15,12,12,28.50
2018,07,15,12,13,28.60
2018,07,15,12,14,28.60
2018,07,15,12,15,28.60
2018,07,15,12,16,28.70
2018,07,15,12,17,28.70
2018,07,15,12,18,28.70
2018,07,15,12,19,28.70
2018,07,15,12,20,28.70
2018,07,15,12,21,28.70
2018,07,15,12,22,28.70
2018,07,15,12,23,28.60
2018,07,15,12,24,28.50
2018,07,15,12,25,28.50
2018,07,15,12,26,28.40
2018,07,15,12,27,28.40
2018,07,15,12,28,28.30
2018,07,15,12,29,28.20
2018,07,15,12,30,28.20
2018,07,15,12,31,28.20
2018,07,15,12,32,28.10
2018,07,15,12,33,28.10
2018,07,15,12,34,28.00
2018,07,15,12,35,28.00
2018,07,15,12,36,27.90
2018,07,15,12,37,27.90
2018,07,15,12,38,27.90
2018,07,15,12,39,27.90
2018,07,15,12,40,27.90
2018,07,15,12,41,27.80
2018,07,15,12,42,27.80
2018,07,15,12,43,27.80
2018,07,15,12,44,27.70
2018,07,15,12,45,27.70
2018,07,15,12,46,27.70
2018,07,15,12,47,27.70
2018,07,15,12,48,27.70
2018,07,15,12,49,27.70
2018,07,15,12,50,27.70
2018,07,15,12,51,27.80
2018,07,15,12,52,27.80
2018,07,15,12,53,27.80
2018,07,15,12,54,27.80
2018,07,15,12,55,27.80
2018,07,15,12,56,27.90
2018,07,15,12,57,27.90
2018,07,15,12,58,27.90
2018,07,15,12,59,27.90
2018,07,15,13,00,27.90
2018,07,15,13,01,27.90
2018,07,15,13,02,28.00
2018,07,15,13,03,28.00
2018,07,15,13,04,28.10
2018,07,15,13,05,28.10
2018,07,15,13,06,28.10
2018,07,15,13,07,28.10
2018,07,15,13,08,28.10
2018,07,15,13,09,28.10
2018,07,15,13,10,28.10
2018,07,15,13,11,28.10
2018,07,15,13,12,28.10
2018,07,15,13,13,28.10
2018,07,15,13,14,28.10
2018,07,15,13,15,28.10
2018,07,15,13,16,28.10
2018,07,15,13,17,28.10
2018,07,15,13,18,28.10
2018,07,15,13,19,28.10
2018,07,15,13,20,28.10
2018,07,15,13,21,28.20
2018,07,15,13,22,28.20
2018,07,15,13,23,28.20
2018,07,15,13,24,28.20
2018,07,15,13,25,28.20
2018,07,15,13,26,28.10
2018,07,15,13,27,28.10
2018,07,15,13,28,28.10
2018,07,15,13,29,28.00
2018,07,15,13,30,28.00
2018,07,15,13,31,27.90
2018,07,15,13,32,27.90
2018,07,15,13,33,27.90
2018,07,15,13,34,27.90
2018,07,15,13,35,27.90
2018,07,15,13,36,27.90
2018,07,15,13,37,27.90
2018,07,15,13,38,27.90
2018,07,15,13,39,27.80
2018,07,15,13,40,27.80
2018,07,15,13,41,27.80
2018,07,15,13,42,27.80
2018,07,15,13,43,27.80
2018,07,15,13,44,27.80
2018,07,15,13,45,27.90
2018,07,15,13,46,27.90
2018,07,15,13,47,27.90
2018,07,15,13,48,28.00
2018,07,15,13,49,28.10
2018,07,15,13,50,28.10
2018,07,15,13,51,28.10
2018,07,15,13,52,28.10
2018,07,15,13,53,28.10
2018,07,15,13,54,28.10
2018,07,15,13,55,28.10
2018,07,15,13,56,28.20
2018,07,15,13,57,28.20
2018,07,15,13,58,28.20
2018,07,15,13,59,28.20
2018,07,15,14,00,28.20
2018,07,15,14,01,28.20
2018,07,15,14,02,28.20
2018,07,15,14,03,28.20
2018,07,15,14,04,28.30
2018,07,15,14,05,28.30
2018,07,15,14,06,28.30
2018,07,15,14,07,28.30
2018,07,15,14,08,28.40
2018,07,15,14,09,28.40
2018,07,15,14,10,28.50
2018,07,15,14,11,28.50
2018,07,15,14,12,28.60
2018,07,15,14,13,28.60
2018,07,15,14,14,28.60
2018,07,15,14,15,28.60
2018,07,15,14,16,28.60
2018,07,15,14,17,28.70
2018,07,15,14,18,28.70
2018,07,15,14,19,28.70
2018,07,15,14,20,28.70
2018,07,15,14,21,28.70
2018,07,15,14,22,28.70
2018,07,15,14,23,28.70
2018,07,15,14,24,28.70
2018,07,15,14,25,28.80
2018,07,15,14,26,28.80
2018,07,15,14,27,28.80
2018,07,15,14,28,28.80
2018,07,15,14,29,28.90
2018,07,15,14,30,28.90
2018,07,15,14,31,28.90
2018,07,15,14,32,28.90
2018,07,15,14,33,28.90
2018,07,15,14,34,28.90
2018,07,15,14,35,28.90
2018,07,15,14,36,28.90
2018,07,15,14,37,28.90
2018,07,15,14,38,28.90
2018,07,15,14,39,28.90
2018,07,15,14,40,28.90
2018,07,15,14,41,29.00
2018,07,15,14,42,29.00
2018,07,15,14,43,29.10
2018,07,15,14,44,29.10
2018,07,15,14,45,29.10
2018,07,15,14,46,29.10
2018,07,15,14,47,29.10
2018,07,15,14,48,29.10
2018,07,15,14,49,29.10
2018,07,15,14,50,29.10
2018,07,15,14,51,29.10
2018,07,15,14,52,29.10
2018,07,15,14,53,29.20
2018,07,15,14,54,29.20
2018,07,15,14,55,29.20
2018,07,15,14,56,29.20
2018,07,15,14,57,29.20
2018,07,15,14,58,29.20
2018,07,15,14,59,29.20
2018,07,15,15,00,29.20
2018,07,15,15,01,29.20
2018,07,15,15,02,29.30
2018,07,15,15,03,29.30
2018,07,15,15,04,29.30
2018,07,15,15,05,29.40
2018,07,15,15,06,29.40
2018,07,15,15,07,29.40
2018,07,15,15,08,29.50
2018,07,15,15,09,29.50
2018,07,15,15,10,29.50
2018,07,15,15,11,29.50
2018,07,15,15,12,29.50
2018,07,15,15,13,29.50
2018,07,15,15,14,29.60
2018,07,15,15,15,29.50
2018,07,15,15,16,29.50
2018,07,15,15,17,29.50
2018,07,15,15,18,29.40
2018,07,15,15,19,29.40
2018,07,15,15,20,29.30
2018,07,15,15,21,29.30
2018,07,15,15,22,29.30
2018,07,15,15,23,29.30
2018,07,15,15,24,29.40
2018,07,15,15,25,29.40
2018,07,15,15,26,29.40
2018,07,15,15,27,29.40
2018,07,15,15,28,29.40
2018,07,15,15,29,29.40
2018,07,15,15,30,29.40
2018,07,15,15,31,29.40
2018,07,15,15,32,29.50
2018,07,15,15,33,29.50
2018,07,15,15,34,29.60
2018,07,15,15,35,29.60
2018,07,15,15,36,29.60
2018,07,15,15,37,29.70
2018,07,15,15,38,29.70
2018,07,15,15,39,29.70
2018,07,15,15,40,29.70
2018,07,15,15,41,29.70
2018,07,15,15,42,29.70
2018,07,15,15,43,29.70
2018,07,15,15,44,29.70
2018,07,15,15,45,29.70
2018,07,15,15,46,29.70
2018,07,15,15,47,29.70
2018,07,15,15,48,29.70
2018,07,15,15,49,29.80
2018,07,15,15,50,29.80
2018,07,15,15,51,29.80
2018,07,15,15,52,29.90
2018,07,15,15,53,29.90
2018,07,15,15,54,29.90
2018,07,15,15,55,29.90
2018,07,15,15,56,30.00
2018,07,15,15,57,30.00
2018,07,15,15,58,30.00
2018,07,15,15,59,30.00
2018,07,15,16,00,30.00
2018,07,15,16,01,30.00
2018,07,15,16,02,30.00
2018,07,15,16,03,30.10
2018,07,15,16,04,30.10
2018,07,15,16,05,30.10
2018,07,15,16,06,30.10
2018,07,15,16,07,30.20
2018,07,15,16,08,30.20
2018,07,15,16,09,30.20
2018,07,15,16,10,30.20
2018,07,15,16,11,30.20
2018,07,15,16,12,30.20
2018,07,15,16,13,30.20
2018,07,15,16,14,30.20
2018,07,15,16,15,30.30
2018,07,15,16,16,30.30
2018,07,15,16,17,30.40
2018,07,15,16,18,30.40
2018,07,15,16,19,30.40
2018,07,15,16,20,30.50
2018,07,15,16,21,30.50
2018,07,15,16,22,30.50
2018,07,15,16,23,30.50
2018,07,15,16,24,30.50
2018,07,15,16,25,30.50
2018,07,15,16,26,30.50
2018,07,15,16,27,30.50
2018,07,15,16,28,30.50
2018,07,15,16,29,30.50
2018,07,15,16,30,30.50
2018,07,15,16,31,30.50
2018,07,15,16,32,30.50
2018,07,15,16,33,30.40
2018,07,15,16,34,30.40
2018,07,15,16,35,30.40
2018,07,15,16,36,30.40
2018,07,15,16,37,30.40
2018,07,15,16,38,30.40
2018,07,15,16,39,30.40
2018,07,15,16,40,30.40
2018,07,15,16,41,30.40
2018,07,15,16,42,30.30
2018,07,15,16,43,30.30
2018,07,15,16,44,30.20
2018,07,15,16,45,30.20
2018,07,15,16,46,30.20
2018,07,15,16,47,30.20
2018,07,15,16,48,30.20
2018,07,15,16,49,30.20
2018,07,15,16,50,30.30
2018,07,15,16,51,30.30
2018,07,15,16,52,30.30
2018,07,15,16,53,30.30
2018,07,15,16,54,30.30
2018,07,15,16,55,30.30
2018,07,15,16,56,30.30
2018,07,15,16,57,30.30
2018,07,15,16,58,30.30
2018,07,15,16,59,30.30
2018,07,15,17,00,30.30
2018,07,15,17,01,30.40
2018,07,15,17,02,30.30
2018,07,15,17,03,30.30
2018,07,15,17,04,30.30
2018,07,15,17,05,30.30
2018,07,15,17,06,30.30
2018,07,15,17,07,30.30
2018,07,15,17,08,30.30
2018,07,15,17,09,30.30
2018,07,15,17,10,30.30
2018,07,15,17,11,30.40
2018,07,15,17,12,30.40
2018,07,15,17,13,30.40
2018,07,15,17,14,30.40
2018,07,15,17,15,30.40
2018,07,15,17,16,30.40
2018,07,15,17,17,30.40
2018,07,15,17,18,30.40
2018,07,15,17,19,30.40